Regional Weather Roundup
Issued by NWS

Home | Current Version | Previous Version | Text Only | Print | Product List | Glossary Off
Versions: 1 2 3 4 5 6 7 8 9 10 11 12 13 14 15 16 17 18 19 20 21 22 23 24 25 26 27 28 29 30 31 32 33 34 35 36 37 38 39 40 41 42 43 44 45 46 47 48 49 50

292
ASUS43 KFSD 230510
RWRSD

WEATHER ROUNDUP FOR SOUTH DAKOTA
NATIONAL WEATHER SERVICE SIOUX FALLS SD
1100 PM CST THU FEB 22 2018

NOTE: "FAIR" INDICATES FEW OR NO CLOUDS BELOW 12,000 FEET WITH NO
SIGNIFICANT WEATHER AND/OR OBSTRUCTIONS TO VISIBILITY.


SDZ001>005-009-010-012>017-230600-
NORTHWEST AND NORTH CENTRAL SOUTH DAKOTA

CITY           SKY/WX    TMP DP  RH WIND       PRES   REMARKS
BUFFALO          N/A      3  -3  76 NW14      30.04F WCI -15
FAITH            N/A      3   1  91 NW10      30.12S WCI -12
MOBRIDGE       LGT SNOW  19  16  88 NW5       30.13F FOG     WCI  12
$$

SDZ012>016-024>037-041>051-057-063-072>074-230600-
SOUTHWEST AND SOUTH CENTRAL SOUTH DAKOTA

CITY           SKY/WX    TMP DP  RH WIND       PRES   REMARKS
RAPID CTY ARPT PTCLDY     5   0  79 W9        30.09S WCI  -9
PIERRE         CLOUDY    13  11  92 NW10      30.13F WCI   0
CUSTER         PTCLDY    12   2  64 CALM      29.95R
ELLSWORTH AFB  CLEAR      8   1  73 W8        30.08S WCI  -4
PHILIP         CLOUDY     6   2  83 W6        30.16R WCI  -4
PINE RIDGE     PTCLDY     9   7  92 NW6       30.09R WCI  -1
SPEARFISH        N/A      7  -2  66 W8        30.09R WCI  -6
WINNER         CLOUDY    22  18  85 W3        30.11F
$$

SDZ004>011-016>023-039-040-230600-
NORTHEAST SOUTH DAKOTA

CITY           SKY/WX    TMP DP  RH WIND       PRES   REMARKS
ABERDEEN       LGT SNOW  22  21  96 NE5       30.16F FOG     WCI  16
WATERTOWN      LGT SNOW  21  19  92 E5        30.11F FOG     WCI  15
BROOKINGS      FLURRIES  22  19  89 SE8       30.12S WCI  12
SISSETON         N/A     22  20  92 CALM      30.16F
$$

SDZ017-020-022-023-036>040-048>070-230600-
SOUTHEAST SOUTH DAKOTA

CITY           SKY/WX    TMP DP  RH WIND       PRES   REMARKS
SIOUX FALLS    CLOUDY    25  23  92 S5        30.13F WCI  19
HURON          CLOUDY    21  20  96 W5        30.15F WCI  15
CHAMBERLAIN    PTCLDY    17  17  99 CALM      30.13F FOG
MITCHELL       LGT SNOW  22  21  96 CALM      30.16S FOG
YANKTON        LGT SNOW  24  23  96 SW6       30.16F FOG     WCI  17
$$

ABBREVIATIONS USED IN REMARKS
   TC - TEMPERATURE IN CELSIUS
  WCI - WIND CHILL INDEX
   HX - HEAT INDEX
  VSB - VISIBILITY





USA.gov is the U.S. government's official web portal to all federal, state and local government web resources and services.